Location: Champignolles
(47.0543°N, 4.5663°E)
Time: 16:33:23
(UTC+00:00)

SKYMED 2 - Pass Details

Date: 30 November 2020
Orbit: 621 x 623 km, 97.9° (Epoch: 28 January)

Event Time Altitude Azimuth Distance (km) Brightness Sun altitude
Exits shadow 17:53:51 22° 17° (NNE) 1,361 5.0 -19.6°
Maximum altitude 17:56:37 81° 103° (ESE) 638 3.4 -20.1°
Drops below altitude 10° 18:00:57 10° 191° (S) 1,989 6.4 -20.8°
Sets 18:03:08 0° 192° (SSW) 2,890 7.3 -21.2°
